Simultaneous Nadir Overpasses (SNOs) Predictions

Prediction of SNOs between NOAA-20 and AQUA Satellite Orbit:

Table of predicted SNOs for the next 14.0 days since TLE Epoch: 2/6/2021
Index Date (NOAA-20) Time (NOAA-20) Lat,Lon (NOAA-20) SZA (NOAA-20 ) Date (AQUA) Time (AQUA) Lat,Lon (AQUA) SZA (AQUA ) Distance(km) Time Diff (sec)
1 02/08/2021 13:39:39 74.76,-149.54 113.86 02/08/2021 13:40:48 74.76,-149.51 113.79 0.89 69
2 02/08/2021 14:29:53 -76.25, 22.46 67.93 02/08/2021 14:29:46 -76.25, 22.36 67.89 2.74 7
3 02/11/2021 05:56:26 75.14, -32.67 112.57 02/11/2021 05:57:10 75.15, -32.63 112.52 1.46 44
4 02/11/2021 06:46:42 -76.53, 139.23 69.11 02/11/2021 06:46:10 -76.52, 139.14 69.06 2.68 32
5 02/13/2021 22:13:13 75.52, 84.24 111.25 02/13/2021 22:13:32 75.52, 84.29 111.22 1.56 19
6 02/13/2021 23:03:38 -76.48,-105.15 69.94 02/13/2021 23:02:40 -76.49,-105.06 69.91 2.83 58
7 02/16/2021 13:39:43 -74.58, 29.98 68.56 02/16/2021 13:40:54 -74.58, 30.04 68.64 2.08 71
8 02/16/2021 14:29:58 75.93,-158.64 109.84 02/16/2021 14:29:52 75.94,-158.60 109.84 1.15 6
9 02/19/2021 05:56:27 -75.10, 147.22 70.10 02/19/2021 05:57:13 -75.10, 147.26 70.15 1.18 46



Historial Predications of SNOs between NOAA-20 and AQUA
